Time,TemperatureF,DewpointF,PressureIn,WindDirection,WindDirectionDegrees,WindSpeedMPH,WindSpeedGustMPH,Humidity,HourlyPrecipIn,Conditions,Clouds,dailyrainin,SoftwareType,DateUTC
2017-04-28 00:03:00,73.5,38.4,29.54,ESE,103,0.0,0.0,28,0.00,,,0.00,Wunderground v.1.15,2017-04-28 07:03:00,
2017-04-28 00:09:00,73.4,38.3,29.54,ESE,103,0.0,0.0,28,0.00,,,0.00,Wunderground v.1.15,2017-04-28 07:09:00,
2017-04-28 00:14:00,73.1,38.0,29.55,ESE,103,0.0,0.0,28,0.00,,,0.00,Wunderground v.1.15,2017-04-28 07:14:00,
2017-04-28 00:19:00,72.8,37.8,29.54,ESE,103,0.0,0.0,28,0.00,,,0.00,Wunderground v.1.15,2017-04-28 07:19:00,
2017-04-28 00:25:00,72.5,37.5,29.54,ESE,103,1.0,1.0,28,0.00,,,0.00,Wunderground v.1.15,2017-04-28 07:25:00,
2017-04-28 00:31:00,72.3,37.4,29.54,ESE,103,0.0,0.0,28,0.00,,,0.00,Wunderground v.1.15,2017-04-28 07:31:00,
2017-04-28 00:36:00,72.1,38.1,29.55,ESE,107,0.0,0.0,29,0.00,,,0.00,Wunderground v.1.15,2017-04-28 07:36:00,
2017-04-28 00:42:00,71.9,37.9,29.54,ESE,107,0.0,0.0,29,0.00,,,0.00,Wunderground v.1.15,2017-04-28 07:42:00,
2017-04-28 00:48:00,71.8,37.8,29.54,ESE,107,0.0,0.0,29,0.00,,,0.00,Wunderground v.1.15,2017-04-28 07:48:00,
2017-04-28 00:53:00,71.7,37.7,29.54,ESE,107,0.0,0.0,29,0.00,,,0.00,Wunderground v.1.15,2017-04-28 07:53:00,
2017-04-28 00:59:00,71.4,37.5,29.54,ESE,107,0.0,0.0,29,0.00,,,0.00,Wunderground v.1.15,2017-04-28 07:59:00,
2017-04-28 01:04:00,71.0,37.1,29.53,ESE,107,0.0,0.0,29,0.00,,,0.00,Wunderground v.1.15,2017-04-28 08:04:00,
2017-04-28 01:09:00,70.5,37.6,29.53,ESE,107,0.0,0.0,30,0.00,,,0.00,Wunderground v.1.15,2017-04-28 08:09:00,
2017-04-28 01:14:00,70.3,39.0,29.53,SW,236,0.0,1.0,32,0.00,,,0.00,Wunderground v.1.15,2017-04-28 08:14:00,
2017-04-28 01:20:00,70.4,39.1,29.53,SW,236,0.0,1.0,32,0.00,,,0.00,Wunderground v.1.15,2017-04-28 08:20:00,
2017-04-28 01:25:00,70.7,39.4,29.53,WSW,237,4.0,4.0,32,0.00,,,0.00,Wunderground v.1.15,2017-04-28 08:25:00,
2017-04-28 01:31:00,71.1,39.7,29.53,WSW,238,0.0,1.0,32,0.00,,,0.00,Wunderground v.1.15,2017-04-28 08:31:00,
2017-04-28 01:36:00,71.3,40.7,29.53,SW,231,0.0,2.0,33,0.00,,,0.00,Wunderground v.1.15,2017-04-28 08:36:00,
2017-04-28 01:41:00,71.6,41.0,29.53,WSW,258,2.0,2.0,33,0.00,,,0.00,Wunderground v.1.15,2017-04-28 08:41:00,
2017-04-28 01:47:00,71.7,41.0,29.53,South,175,2.0,4.0,33,0.00,,,0.00,Wunderground v.1.15,2017-04-28 08:47:00,
2017-04-28 01:52:00,71.9,41.2,29.52,SSW,194,4.0,4.0,33,0.00,,,0.00,Wunderground v.1.15,2017-04-28 08:52:00,
2017-04-28 01:58:00,72.0,42.1,29.52,SSW,193,0.0,4.0,34,0.00,,,0.00,Wunderground v.1.15,2017-04-28 08:58:00,
2017-04-28 02:03:00,72.1,42.2,29.52,SSW,204,0.0,4.0,34,0.00,,,0.00,Wunderground v.1.15,2017-04-28 09:03:00,
2017-04-28 02:08:00,72.0,42.1,29.52,SSW,204,0.0,4.0,34,0.00,,,0.00,Wunderground v.1.15,2017-04-28 09:08:00,
2017-04-28 02:13:00,72.0,42.1,29.52,SSW,202,0.0,0.0,34,0.00,,,0.00,Wunderground v.1.15,2017-04-28 09:13:00,
2017-04-28 02:18:00,71.9,42.8,29.52,South,190,0.0,6.0,35,0.00,,,0.00,Wunderground v.1.15,2017-04-28 09:18:00,
2017-04-28 02:23:00,71.8,43.4,29.53,SSW,192,0.0,3.0,36,0.00,,,0.00,Wunderground v.1.15,2017-04-28 09:23:00,
2017-04-28 02:28:00,71.8,43.4,29.52,SSW,196,0.0,5.0,36,0.00,,,0.00,Wunderground v.1.15,2017-04-28 09:28:00,
2017-04-28 02:33:00,71.7,44.0,29.52,SSW,196,1.0,5.0,37,0.00,,,0.00,Wunderground v.1.15,2017-04-28 09:33:00,
2017-04-28 02:38:00,71.7,44.7,29.52,SSW,196,0.0,8.0,38,0.00,,,0.00,Wunderground v.1.15,2017-04-28 09:38:00,
2017-04-28 02:43:00,71.6,44.6,29.51,SSW,205,0.0,3.0,38,0.00,,,0.00,Wunderground v.1.15,2017-04-28 09:43:00,
2017-04-28 02:49:00,71.6,45.3,29.52,SSE,167,3.0,9.0,39,0.00,,,0.00,Wunderground v.1.15,2017-04-28 09:49:00,
2017-04-28 02:54:00,71.5,45.2,29.52,South,190,0.0,10.0,39,0.00,,,0.00,Wunderground v.1.15,2017-04-28 09:54:00,
2017-04-28 02:59:00,71.5,45.9,29.51,SSE,166,5.0,10.0,40,0.00,,,0.00,Wunderground v.1.15,2017-04-28 09:59:00,
2017-04-28 03:05:00,71.4,45.8,29.51,South,178,0.0,7.0,40,0.00,,,0.00,Wunderground v.1.15,2017-04-28 10:05:00,
2017-04-28 03:10:00,71.4,45.1,29.51,South,180,1.0,6.0,39,0.00,,,0.00,Wunderground v.1.15,2017-04-28 10:10:00,
2017-04-28 03:15:00,71.3,45.1,29.52,South,183,3.0,6.0,39,0.00,,,0.00,Wunderground v.1.15,2017-04-28 10:15:00,
2017-04-28 03:20:00,71.2,45.0,29.52,SSW,192,0.0,3.0,39,0.00,,,0.00,Wunderground v.1.15,2017-04-28 10:20:00,
2017-04-28 03:25:00,71.1,45.5,29.51,South,174,0.0,5.0,40,0.00,,,0.00,Wunderground v.1.15,2017-04-28 10:25:00,
2017-04-28 03:30:00,71.0,45.5,29.51,South,172,0.0,4.0,40,0.00,,,0.00,Wunderground v.1.15,2017-04-28 10:30:00,
2017-04-28 03:35:00,70.8,45.3,29.51,South,173,0.0,5.0,40,0.00,,,0.00,Wunderground v.1.15,2017-04-28 10:35:00,
2017-04-28 03:40:00,70.8,45.3,29.51,South,173,0.0,1.0,40,0.00,,,0.00,Wunderground v.1.15,2017-04-28 10:40:00,
2017-04-28 03:45:00,70.6,45.1,29.51,South,173,0.0,5.0,40,0.00,,,0.00,Wunderground v.1.15,2017-04-28 10:45:00,
2017-04-28 03:50:00,70.5,45.0,29.51,South,172,0.0,3.0,40,0.00,,,0.00,Wunderground v.1.15,2017-04-28 10:50:00,
2017-04-28 03:55:00,70.5,44.3,29.51,South,172,1.0,4.0,39,0.00,,,0.00,Wunderground v.1.15,2017-04-28 10:55:00,
2017-04-28 04:00:00,70.6,44.4,29.50,South,172,0.0,1.0,39,0.00,,,0.00,Wunderground v.1.15,2017-04-28 11:00:00,
2017-04-28 04:05:00,70.6,44.4,29.51,South,175,0.0,6.0,39,0.00,,,0.00,Wunderground v.1.15,2017-04-28 11:05:00,
2017-04-28 04:06:00,70.6,44.4,29.51,South,175,0.0,6.0,39,0.00,,,0.00,Wunderground v.1.15,2017-04-28 11:06:00,
2017-04-28 04:11:00,70.7,44.5,29.50,WSW,256,3.0,5.0,39,0.00,,,0.00,Wunderground v.1.15,2017-04-28 11:11:00,
2017-04-28 04:16:00,70.8,44.6,29.50,South,175,2.0,6.0,39,0.00,,,0.00,Wunderground v.1.15,2017-04-28 11:16:00,
2017-04-28 04:21:00,70.9,44.7,29.50,WSW,248,0.0,4.0,39,0.00,,,0.00,Wunderground v.1.15,2017-04-28 11:21:00,
2017-04-28 04:26:00,71.0,44.1,29.50,West,260,0.0,8.0,38,0.00,,,0.00,Wunderground v.1.15,2017-04-28 11:26:00,
2017-04-28 04:32:00,71.1,44.2,29.50,WSW,258,2.0,15.0,38,0.00,,,0.00,Wunderground v.1.15,2017-04-28 11:32:00,
2017-04-28 04:37:00,71.1,44.2,29.50,West,263,6.0,15.0,38,0.00,,,0.00,Wunderground v.1.15,2017-04-28 11:37:00,
2017-04-28 04:42:00,71.0,44.1,29.50,WSW,253,4.0,4.0,38,0.00,,,0.00,Wunderground v.1.15,2017-04-28 11:42:00,
2017-04-28 04:47:00,71.0,44.8,29.50,WSW,245,0.0,4.0,39,0.00,,,0.00,Wunderground v.1.15,2017-04-28 11:47:00,
2017-04-28 04:52:00,70.8,44.6,29.51,South,182,0.0,2.0,39,0.00,,,0.00,Wunderground v.1.15,2017-04-28 11:52:00,
2017-04-28 04:57:00,70.7,44.5,29.51,WSW,247,2.0,12.0,39,0.00,,,0.00,Wunderground v.1.15,2017-04-28 11:57:00,
2017-04-28 05:02:00,70.7,44.5,29.51,WSW,244,0.0,6.0,39,0.00,,,0.00,Wunderground v.1.15,2017-04-28 12:02:00,
2017-04-28 05:07:00,70.6,44.4,29.51,South,182,5.0,7.0,39,0.00,,,0.00,Wunderground v.1.15,2017-04-28 12:07:00,
2017-04-28 05:12:00,70.5,44.3,29.51,WSW,252,0.0,4.0,39,0.00,,,0.00,Wunderground v.1.15,2017-04-28 12:12:00,
2017-04-28 05:17:00,70.4,44.9,29.52,WSW,246,1.0,10.0,40,0.00,,,0.00,Wunderground v.1.15,2017-04-28 12:17:00,
2017-04-28 05:22:00,70.4,44.9,29.52,SE,144,0.0,5.0,40,0.00,,,0.00,Wunderground v.1.15,2017-04-28 12:22:00,
2017-04-28 05:27:00,70.3,44.8,29.52,SSE,165,0.0,7.0,40,0.00,,,0.00,Wunderground v.1.15,2017-04-28 12:27:00,
2017-04-28 05:32:00,70.3,44.8,29.52,South,179,1.0,4.0,40,0.00,,,0.00,Wunderground v.1.15,2017-04-28 12:32:00,
2017-04-28 05:37:00,70.1,44.6,29.52,South,178,0.0,4.0,40,0.00,,,0.00,Wunderground v.1.15,2017-04-28 12:37:00,
2017-04-28 05:42:00,69.8,44.4,29.53,South,173,0.0,1.0,40,0.00,,,0.00,Wunderground v.1.15,2017-04-28 12:42:00,
2017-04-28 05:47:00,69.5,44.1,29.53,South,173,0.0,1.0,40,0.00,,,0.00,Wunderground v.1.15,2017-04-28 12:47:00,
2017-04-28 05:49:00,69.5,44.1,29.53,South,173,0.0,1.0,40,0.00,,,0.00,Wunderground v.1.15,2017-04-28 12:49:00,
2017-04-28 05:54:00,69.3,44.6,29.53,South,173,0.0,0.0,41,0.00,,,0.00,Wunderground v.1.15,2017-04-28 12:54:00,
2017-04-28 05:59:00,69.1,44.4,29.52,South,182,0.0,4.0,41,0.00,,,0.00,Wunderground v.1.15,2017-04-28 12:59:00,
2017-04-28 06:04:00,69.0,44.3,29.52,South,178,0.0,6.0,41,0.00,,,0.00,Wunderground v.1.15,2017-04-28 13:04:00,
2017-04-28 06:09:00,69.0,44.9,29.52,South,175,3.0,3.0,42,0.00,,,0.00,Wunderground v.1.15,2017-04-28 13:09:00,
2017-04-28 06:14:00,69.2,45.1,29.52,South,176,0.0,7.0,42,0.00,,,0.00,Wunderground v.1.15,2017-04-28 13:14:00,
2017-04-28 06:19:00,69.4,45.3,29.52,South,171,0.0,1.0,42,0.00,,,0.00,Wunderground v.1.15,2017-04-28 13:19:00,
2017-04-28 06:24:00,69.6,44.8,29.52,West,263,4.0,7.0,41,0.00,,,0.00,Wunderground v.1.15,2017-04-28 13:24:00,
2017-04-28 06:29:00,69.8,45.0,29.53,SSE,162,0.0,1.0,41,0.00,,,0.00,Wunderground v.1.15,2017-04-28 13:29:00,
2017-04-28 06:35:00,70.1,45.3,29.53,SSE,161,0.0,4.0,41,0.00,,,0.00,Wunderground v.1.15,2017-04-28 13:35:00,
2017-04-28 06:39:00,70.3,45.5,29.53,South,171,2.0,5.0,41,0.00,,,0.00,Wunderground v.1.15,2017-04-28 13:39:00,
2017-04-28 06:45:00,70.6,45.7,29.53,SSE,168,0.0,9.0,41,0.00,,,0.00,Wunderground v.1.15,2017-04-28 13:45:00,
2017-04-28 06:50:00,71.0,45.5,29.53,SSW,198,5.0,6.0,40,0.00,,,0.00,Wunderground v.1.15,2017-04-28 13:50:00,
2017-04-28 06:55:00,71.3,45.7,29.53,SSE,165,1.0,7.0,40,0.00,,,0.00,Wunderground v.1.15,2017-04-28 13:55:00,
2017-04-28 07:00:00,71.5,45.2,29.53,SW,236,2.0,5.0,39,0.00,,,0.00,Wunderground v.1.15,2017-04-28 14:00:00,
2017-04-28 07:05:00,71.5,45.2,29.53,South,186,3.0,11.0,39,0.00,,,0.00,Wunderground v.1.15,2017-04-28 14:05:00,
2017-04-28 07:10:00,71.5,45.2,29.53,West,264,12.0,12.0,39,0.00,,,0.00,Wunderground v.1.15,2017-04-28 14:10:00,
2017-04-28 07:15:00,71.6,45.3,29.53,West,268,3.0,12.0,39,0.00,,,0.00,Wunderground v.1.15,2017-04-28 14:15:00,
2017-04-28 07:20:00,71.7,45.4,29.53,SW,217,2.0,4.0,39,0.00,,,0.00,Wunderground v.1.15,2017-04-28 14:20:00,
2017-04-28 07:25:00,71.8,45.5,29.53,WSW,257,7.0,12.0,39,0.00,,,0.00,Wunderground v.1.15,2017-04-28 14:25:00,
2017-04-28 07:30:00,71.8,45.5,29.53,South,176,3.0,4.0,39,0.00,,,0.00,Wunderground v.1.15,2017-04-28 14:30:00,
2017-04-28 07:35:00,71.8,45.5,29.54,SW,234,3.0,14.0,39,0.00,,,0.00,Wunderground v.1.15,2017-04-28 14:35:00,
2017-04-28 07:40:00,72.1,45.8,29.54,SW,217,0.0,6.0,39,0.00,,,0.00,Wunderground v.1.15,2017-04-28 14:40:00,
2017-04-28 07:45:00,72.4,45.4,29.54,West,275,9.0,11.0,38,0.00,,,0.00,Wunderground v.1.15,2017-04-28 14:45:00,
2017-04-28 07:50:00,72.7,45.6,29.54,South,174,2.0,4.0,38,0.00,,,0.00,Wunderground v.1.15,2017-04-28 14:50:00,